Change the Weather History Date:

Wednesday, December 18, 2013

  Actual Average Record
Temperature  
Mean Temperature 44 °F 48 °F  
Max Temperature 55 °F 58 °F 73 °F (2006)
Min Temperature 32 °F 38 °F 18 °F (1953)
Degree Days  
Heating Degree Days 21 17  
Month to date heating degree days 241 272  
Since 1 July heating degree days 654 633  
Cooling Degree Days 0 0  
Month to date cooling degree days 3 0  
Year to date cooling degree days 1843 1899  
Moisture  
Dew Point 28 °F    
Average Humidity 56    
Maximum Humidity 85    
Minimum Humidity 26    
Precipitation  
Precipitation 0.00 in 0.11 in 0.81 in (2005)
Month to date precipitation 0.70 2.14  
Year to date precipitation 47.68 50.69  
Sea Level Pressure  
Sea Level Pressure 30.23 in    
Wind  
Wind Speed 4 mph (NNW)    
Max Wind Speed 15 mph    
Max Gust Speed 23 mph    
Visibility 10 miles    
Events      
T = Trace of Precipitation, MM = Missing Value Source: NWS Daily Summary

Daily Weather History Graph

Daily Weather History Graph

Search for Another Location

Airport or City:

Trip Planner

Search our weather history database for the weather conditions in past years. The results will help you decide how hot, cold, wet, or windy it might be!

Date:

Astronomy

Dec. 18, 2013 Rise Set
Actual Time 7:14 AM EST 5:08 PM EST
Civil Twilight 6:46 AM EST 5:36 PM EST
Nautical Twilight 6:15 AM EST 6:07 PM EST
Astronomical Twilight 5:45 AM EST 6:38 PM EST
Moon 6:35 PM EST (12/18) 7:56 AM EST (12/18)
Length of Visible Light 10h 49m
Length of Day
9h 54m
Full, 98% of the Moon is Illuminated
Dec 18
Full
Dec 25
Last Quarter
Jan 1
New
Jan 7
First Quarter
Jan 15
Full

Hourly Weather History & Observations

Time (EST) Temp. Windchill Dew Point Humidity Pressure Visibility Wind Dir Wind Speed Gust Speed Precip Events Conditions
12:53 AM 54.0 °F - 34.0 °F 47% 30.05 in 10.0 mi WSW 10.4 mph 18.4 mph N/A   Clear
1:53 AM 53.1 °F - 33.1 °F 47% 30.06 in 10.0 mi West 8.1 mph - N/A   Clear
2:53 AM 51.1 °F - 33.1 °F 50% 30.08 in 10.0 mi West 8.1 mph - N/A   Clear
3:53 AM 48.0 °F - 34.0 °F 58% 30.10 in 10.0 mi NW 3.5 mph - N/A   Clear
4:53 AM 46.0 °F - 34.0 °F 63% 30.12 in 10.0 mi Calm Calm - N/A   Clear
5:53 AM 39.9 °F 37.8 °F 35.1 °F 83% 30.15 in 10.0 mi NNW 3.5 mph - N/A   Clear
6:53 AM 42.1 °F 39.2 °F 32.0 °F 67% 30.19 in 10.0 mi North 4.6 mph - N/A   Clear
7:53 AM 42.1 °F - 32.0 °F 67% 30.22 in 10.0 mi Calm Calm - N/A   Clear
8:53 AM 46.9 °F - 30.0 °F 52% 30.25 in 10.0 mi North 9.2 mph - N/A   Clear
9:53 AM 50.0 °F - 21.9 °F 33% 30.28 in 10.0 mi North 6.9 mph 18.4 mph N/A   Clear
10:53 AM 51.1 °F - 21.9 °F 32% 30.27 in 10.0 mi North 9.2 mph - N/A   Clear
11:53 AM 52.0 °F - 21.0 °F 30% 30.26 in 10.0 mi North 3.5 mph - N/A   Clear
12:53 PM 53.1 °F - 19.0 °F 26% 30.24 in 10.0 mi Variable 5.8 mph - N/A   Clear
1:53 PM 54.0 °F - 19.9 °F 26% 30.23 in 10.0 mi NW 8.1 mph - N/A   Clear
2:53 PM 55.0 °F - 21.0 °F 27% 30.24 in 10.0 mi Variable 5.8 mph - N/A   Clear
3:53 PM 54.0 °F - 21.9 °F 29% 30.25 in 10.0 mi Variable 4.6 mph - N/A   Clear
4:53 PM 52.0 °F - 23.0 °F 32% 30.27 in 10.0 mi NNW 4.6 mph - N/A   Clear
5:53 PM 42.1 °F - 30.9 °F 65% 30.28 in 10.0 mi Calm Calm - N/A   Clear
6:53 PM 39.0 °F - 30.9 °F 73% 30.29 in 10.0 mi Calm Calm - N/A   Clear
7:53 PM 37.0 °F - 30.0 °F 76% 30.31 in 10.0 mi Calm Calm - N/A   Clear
8:53 PM 35.1 °F - 28.9 °F 78% 30.32 in 10.0 mi Calm Calm - N/A   Clear
9:53 PM 35.1 °F - 28.9 °F 78% 30.33 in 10.0 mi Calm Calm - N/A   Clear
10:53 PM 33.1 °F - 28.0 °F 82% 30.33 in 10.0 mi Calm Calm - N/A   Clear
11:53 PM 32.0 °F - 28.0 °F 85% 30.33 in 10.0 mi Calm Calm - N/A   Clear